RYR9VG LEXJ-EGSS

Flight info

Callsign RYR9VG
Flight time 1h 33m
Altitude 34000
Route VADOX N864 DELOG DCT DIDIG UP87 TERPO UN867 EKRAS UM184 DIKRO UM185 TELTU
Aircraft B738/M-SDGIJ1LRWY/SB1

Departure

Time 2026-05-06 13:47
Airport Seve Ballesteros-Santander Airport (LEXJ)

Arrival

Time 2026-05-06 15:20
Airport London Stansted Airport (EGSS)
Time Latitude Longitude Altitude Speed Heading
2026-05-06 13:25 43.42419 -3.82435 19 ft 0 kts 234°
2026-05-06 13:42 43.42420 -3.82442 19 ft 1 kts 302°
2026-05-06 13:42 43.42446 -3.82434 19 ft 6 kts 23°
2026-05-06 13:42 43.42462 -3.82369 18 ft 9 kts 57°
2026-05-06 13:43 43.42529 -3.82325 18 ft 12 kts 19°
2026-05-06 13:43 43.42601 -3.82268 18 ft 11 kts 73°
2026-05-06 13:43 43.42581 -3.82163 18 ft 14 kts 110°
2026-05-06 13:43 43.42544 -3.82021 18 ft 15 kts 110°
2026-05-06 13:44 43.42503 -3.81872 18 ft 17 kts 109°
2026-05-06 13:44 43.42456 -3.81692 18 ft 20 kts 110°
2026-05-06 13:44 43.42408 -3.81517 19 ft 19 kts 110°
2026-05-06 13:44 43.42390 -3.81362 20 ft 13 kts 56°
2026-05-06 13:45 43.42468 -3.81299 20 ft 12 kts 20°
2026-05-06 13:45 43.42428 -3.80957 20 ft 29 kts 111°
2026-05-06 13:45 43.42374 -3.80768 20 ft 13 kts 118°
2026-05-06 13:46 43.42318 -3.80682 20 ft 8 kts 116°
2026-05-06 13:46 43.42348 -3.80672 20 ft 9 kts 308°
2026-05-06 13:46 43.42408 -3.80883 20 ft 53 kts 290°
2026-05-06 13:46 43.42613 -3.81651 19 ft 115 kts 290°
2026-05-06 13:47 43.42928 -3.82834 18 ft 134 kts 290°
2026-05-06 13:47 43.43278 -3.84119 162 ft 164 kts 293°
2026-05-06 13:47 43.43702 -3.85636 861 ft 172 kts 294°
2026-05-06 13:47 43.44144 -3.87115 1714 ft 167 kts 295°
2026-05-06 13:48 43.44550 -3.88528 2291 ft 164 kts 294°
2026-05-06 13:48 43.45120 -3.89928 2559 ft 175 kts 319°
2026-05-06 13:48 43.46248 -3.90573 2872 ft 184 kts 357°
2026-05-06 13:48 43.47583 -3.90564 3152 ft 202 kts
2026-05-06 13:49 43.49034 -3.90621 3478 ft 219 kts 356°
2026-05-06 13:49 43.50619 -3.90776 3915 ft 232 kts 355°
2026-05-06 13:49 43.52261 -3.90950 4276 ft 248 kts 355°
2026-05-06 13:49 43.54024 -3.91128 4772 ft 257 kts 356°
2026-05-06 13:50 43.55837 -3.91303 5359 ft 263 kts 356°
2026-05-06 13:50 43.57665 -3.91476 6004 ft 267 kts 355°
2026-05-06 13:50 43.59513 -3.91651 6647 ft 270 kts 355°
2026-05-06 13:50 43.61400 -3.91830 7335 ft 273 kts 355°
2026-05-06 13:51 43.63289 -3.92011 7993 ft 277 kts 355°
2026-05-06 13:51 43.65218 -3.92195 8698 ft 279 kts 355°
2026-05-06 13:51 43.67146 -3.92379 9374 ft 283 kts 355°
2026-05-06 13:51 43.69118 -3.92568 10077 ft 285 kts 355°
2026-05-06 13:52 43.71124 -3.92759 10600 ft 296 kts 355°
2026-05-06 13:52 43.73226 -3.92960 10984 ft 311 kts 355°
2026-05-06 13:52 43.75429 -3.93172 11362 ft 326 kts 355°
2026-05-06 13:52 43.77718 -3.93391 11910 ft 335 kts 355°
2026-05-06 13:53 43.80064 -3.93616 12625 ft 340 kts 355°
2026-05-06 13:53 43.82431 -3.93845 13353 ft 344 kts 355°
2026-05-06 13:53 43.84822 -3.94078 14104 ft 347 kts 355°
2026-05-06 13:53 43.87213 -3.94312 14842 ft 350 kts 355°
2026-05-06 13:54 43.89626 -3.94547 15592 ft 353 kts 355°
2026-05-06 13:54 43.92083 -3.94784 16333 ft 355 kts 355°
2026-05-06 13:54 43.94572 -3.95022 17054 ft 359 kts 355°
2026-05-06 13:54 43.97061 -3.95261 17779 ft 361 kts 355°
2026-05-06 13:55 43.99575 -3.95503 18501 ft 364 kts 355°
2026-05-06 13:55 44.02074 -3.95745 19138 ft 367 kts 355°
2026-05-06 13:55 44.04631 -3.95994 19784 ft 371 kts 355°
2026-05-06 13:55 44.07226 -3.96247 20424 ft 374 kts 355°
2026-05-06 13:56 44.09824 -3.96501 21027 ft 378 kts 355°
2026-05-06 13:56 44.12436 -3.96756 21633 ft 381 kts 355°
2026-05-06 13:56 44.15082 -3.97014 22203 ft 385 kts 355°
2026-05-06 13:56 44.17773 -3.97276 22736 ft 389 kts 355°
2026-05-06 13:57 44.20471 -3.97540 23305 ft 392 kts 355°
2026-05-06 13:57 44.23225 -3.97810 23812 ft 397 kts 355°
2026-05-06 13:57 44.25970 -3.98075 24397 ft 399 kts 355°
2026-05-06 13:57 44.28735 -3.98165 24899 ft 403 kts
2026-05-06 13:58 44.31539 -3.97734 25461 ft 406 kts 11°
2026-05-06 13:58 44.34241 -3.96620 25965 ft 410 kts 20°
2026-05-06 13:58 44.36793 -3.94875 26471 ft 413 kts 28°
2026-05-06 13:58 44.39227 -3.92761 26944 ft 416 kts 32°
2026-05-06 13:59 44.41638 -3.90473 27427 ft 419 kts 33°
2026-05-06 13:59 44.44025 -3.88134 27872 ft 422 kts 34°
2026-05-06 13:59 44.46407 -3.85772 28340 ft 424 kts 34°
2026-05-06 13:59 44.48838 -3.83357 28761 ft 428 kts 34°
2026-05-06 14:00 44.51266 -3.80949 29177 ft 431 kts 34°
2026-05-06 14:00 44.53711 -3.78529 29603 ft 433 kts 33°
2026-05-06 14:00 44.56165 -3.76105 30005 ft 436 kts 33°
2026-05-06 14:00 44.58649 -3.73655 30401 ft 439 kts 33°
2026-05-06 14:01 44.61129 -3.71210 30902 ft 438 kts 33°
2026-05-06 14:01 44.63620 -3.68753 31504 ft 435 kts 33°
2026-05-06 14:01 44.66071 -3.66335 31967 ft 434 kts 33°
2026-05-06 14:01 44.68541 -3.63896 32385 ft 434 kts 33°
2026-05-06 14:02 44.70981 -3.61486 32774 ft 434 kts 33°
2026-05-06 14:02 44.73451 -3.59045 33179 ft 433 kts 33°
2026-05-06 14:02 44.75919 -3.56604 33606 ft 432 kts 33°
2026-05-06 14:02 44.78345 -3.54199 34008 ft 430 kts 33°
2026-05-06 14:03 44.80772 -3.51794 34393 ft 428 kts 33°
2026-05-06 14:03 44.83195 -3.49391 34701 ft 428 kts 33°
2026-05-06 14:03 44.85630 -3.46974 34980 ft 428 kts 33°
2026-05-06 14:03 44.88056 -3.44564 35229 ft 428 kts 33°
2026-05-06 14:04 44.90478 -3.42155 35440 ft 429 kts 33°
2026-05-06 14:04 44.92913 -3.39730 35657 ft 429 kts 32°
2026-05-06 14:04 44.95345 -3.37307 35854 ft 430 kts 32°
2026-05-06 14:04 44.97802 -3.34857 36044 ft 431 kts 33°
2026-05-06 14:05 45.00241 -3.32420 36231 ft 432 kts 33°
2026-05-06 14:05 45.02692 -3.29969 36446 ft 431 kts 33°
2026-05-06 14:05 45.05124 -3.27533 36625 ft 432 kts 33°
2026-05-06 14:05 45.07568 -3.25083 36785 ft 433 kts 33°
2026-05-06 14:06 45.10006 -3.22637 36941 ft 434 kts 33°
2026-05-06 14:06 45.12503 -3.20130 37096 ft 434 kts 33°
2026-05-06 14:06 45.14939 -3.17681 37235 ft 436 kts 33°
2026-05-06 14:06 45.17425 -3.15178 37372 ft 437 kts 33°
2026-05-06 14:07 45.19893 -3.12691 37531 ft 437 kts 33°
2026-05-06 14:07 45.22347 -3.10216 37651 ft 438 kts 33°
2026-05-06 14:07 45.24851 -3.07687 37801 ft 439 kts 34°
2026-05-06 14:07 45.27313 -3.05198 37942 ft 439 kts 33°
2026-05-06 14:08 45.32279 -3.00169 37981 ft 441 kts 33°
2026-05-06 14:08 45.37236 -2.95137 37981 ft 438 kts 34°
2026-05-06 14:09 45.42212 -2.90077 37979 ft 439 kts 34°
2026-05-06 14:09 45.47155 -2.85038 37980 ft 440 kts 33°
2026-05-06 14:10 45.52096 -2.79990 37977 ft 440 kts 34°
2026-05-06 14:10 45.57055 -2.74912 37979 ft 439 kts 34°
2026-05-06 14:11 45.61985 -2.69852 37973 ft 438 kts 33°
2026-05-06 14:11 45.66913 -2.64784 37966 ft 438 kts 33°
2026-05-06 14:12 45.71857 -2.59689 37967 ft 438 kts 34°
2026-05-06 14:12 45.76775 -2.54610 37968 ft 438 kts 33°
2026-05-06 14:13 45.81730 -2.49479 37965 ft 439 kts 34°
2026-05-06 14:13 45.86664 -2.44360 37966 ft 439 kts 33°
2026-05-06 14:14 45.91564 -2.39264 37961 ft 438 kts 33°
2026-05-06 14:14 45.96497 -2.34123 37966 ft 439 kts 34°
2026-05-06 14:15 46.01419 -2.29009 37971 ft 438 kts 33°
2026-05-06 14:15 46.06757 -2.24843 37969 ft 434 kts 16°
2026-05-06 14:16 46.12608 -2.22856 37968 ft 433 kts
2026-05-06 14:16 46.18535 -2.21492 37962 ft 432 kts
2026-05-06 14:17 46.24423 -2.20192 37958 ft 432 kts
2026-05-06 14:17 46.30348 -2.18821 37958 ft 432 kts
2026-05-06 14:18 46.36272 -2.17402 37959 ft 432 kts
2026-05-06 14:18 46.42182 -2.15960 37958 ft 432 kts
2026-05-06 14:19 46.48112 -2.14501 37950 ft 433 kts
2026-05-06 14:19 46.54023 -2.13042 37949 ft 432 kts
2026-05-06 14:20 46.59921 -2.11581 37956 ft 432 kts
2026-05-06 14:20 46.65823 -2.10117 37957 ft 432 kts
2026-05-06 14:21 46.71747 -2.08643 37954 ft 431 kts
2026-05-06 14:21 46.77626 -2.07178 37950 ft 431 kts
2026-05-06 14:22 46.83529 -2.05704 37954 ft 432 kts
2026-05-06 14:22 46.89461 -2.04219 37950 ft 432 kts
2026-05-06 14:23 46.95353 -2.02740 37950 ft 433 kts
2026-05-06 14:23 47.01307 -2.01243 37949 ft 432 kts
2026-05-06 14:24 47.07209 -1.99775 37945 ft 431 kts
2026-05-06 14:24 47.13098 -1.98318 37949 ft 431 kts
2026-05-06 14:25 47.19009 -1.96853 37947 ft 431 kts
2026-05-06 14:25 47.24906 -1.95388 37949 ft 432 kts
2026-05-06 14:26 47.30846 -1.93907 37952 ft 433 kts
2026-05-06 14:26 47.36734 -1.92428 37946 ft 432 kts
2026-05-06 14:27 47.42639 -1.90856 37945 ft 431 kts
2026-05-06 14:27 47.48536 -1.89247 37947 ft 431 kts
2026-05-06 14:28 47.54398 -1.87647 37945 ft 431 kts
2026-05-06 14:28 47.60286 -1.86042 37943 ft 432 kts
2026-05-06 14:29 47.66168 -1.84440 37944 ft 431 kts
2026-05-06 14:29 47.72063 -1.82834 37937 ft 431 kts
2026-05-06 14:30 47.77954 -1.81224 37933 ft 431 kts
2026-05-06 14:30 47.83827 -1.79618 37933 ft 432 kts
2026-05-06 14:31 47.89743 -1.77996 37928 ft 431 kts
2026-05-06 14:31 47.95614 -1.76382 37937 ft 431 kts
2026-05-06 14:32 48.01458 -1.74772 37939 ft 429 kts
2026-05-06 14:32 48.07354 -1.73142 37938 ft 431 kts
2026-05-06 14:33 48.13225 -1.71517 37943 ft 432 kts
2026-05-06 14:33 48.19111 -1.69883 37936 ft 431 kts
2026-05-06 14:34 48.24994 -1.68245 37937 ft 431 kts
2026-05-06 14:34 48.30903 -1.66598 37934 ft 431 kts
2026-05-06 14:35 48.36759 -1.64963 37934 ft 431 kts
2026-05-06 14:35 48.42635 -1.63318 37933 ft 431 kts
2026-05-06 14:36 48.48497 -1.61672 37933 ft 432 kts
2026-05-06 14:36 48.54407 -1.60008 37938 ft 432 kts
2026-05-06 14:37 48.60290 -1.58349 37940 ft 431 kts
2026-05-06 14:37 48.66150 -1.56690 37823 ft 431 kts
2026-05-06 14:38 48.69105 -1.55854 37932 ft 431 kts
2026-05-06 14:38 48.72046 -1.55021 37926 ft 435 kts
2026-05-06 14:38 48.77974 -1.53338 37942 ft 432 kts
2026-05-06 14:39 48.83879 -1.51657 37947 ft 433 kts
2026-05-06 14:39 48.89762 -1.49809 37954 ft 434 kts 13°
2026-05-06 14:40 48.95496 -1.47031 37955 ft 436 kts 18°
2026-05-06 14:40 49.01155 -1.43839 37951 ft 435 kts 19°
2026-05-06 14:41 49.06815 -1.40579 37959 ft 434 kts 19°
2026-05-06 14:41 49.12439 -1.37357 37959 ft 434 kts 19°
2026-05-06 14:42 49.18105 -1.34131 37966 ft 435 kts 19°
2026-05-06 14:42 49.23753 -1.30924 37970 ft 436 kts 19°
2026-05-06 14:43 49.29449 -1.27690 37972 ft 436 kts 19°
2026-05-06 14:43 49.35117 -1.24465 37972 ft 435 kts 19°
2026-05-06 14:44 49.40745 -1.21255 37977 ft 434 kts 19°
2026-05-06 14:45 49.49233 -1.16401 37975 ft 435 kts 19°
2026-05-06 14:45 49.54889 -1.13108 37968 ft 436 kts 21°
2026-05-06 14:46 49.60258 -1.08899 37966 ft 438 kts 31°
2026-05-06 14:46 49.65215 -1.03479 37965 ft 438 kts 36°
2026-05-06 14:47 49.70009 -0.97711 37968 ft 439 kts 37°
2026-05-06 14:47 49.74944 -0.92208 37963 ft 438 kts 26°
2026-05-06 14:47 49.77743 -0.90501 37968 ft 436 kts 12°
2026-05-06 14:48 49.80717 -0.89658 37969 ft 436 kts
2026-05-06 14:48 49.86753 -0.88753 37965 ft 435 kts
2026-05-06 14:49 49.92722 -0.88067 37648 ft 429 kts
2026-05-06 14:49 49.95679 -0.87713 37214 ft 426 kts
2026-05-06 14:49 49.98618 -0.87344 36677 ft 427 kts
2026-05-06 14:49 50.01571 -0.86957 36145 ft 428 kts
2026-05-06 14:50 50.04518 -0.86559 35701 ft 431 kts
2026-05-06 14:50 50.07514 -0.86145 35444 ft 425 kts
2026-05-06 14:50 50.10393 -0.85740 35151 ft 422 kts
2026-05-06 14:50 50.13334 -0.85324 34483 ft 425 kts
2026-05-06 14:51 50.16296 -0.84903 33673 ft 430 kts
2026-05-06 14:51 50.19253 -0.84481 32864 ft 434 kts
2026-05-06 14:51 50.22250 -0.84052 32387 ft 429 kts
2026-05-06 14:51 50.25188 -0.83630 31870 ft 425 kts
2026-05-06 14:52 50.28107 -0.83209 31387 ft 421 kts
2026-05-06 14:52 50.30970 -0.82795 31065 ft 403 kts
2026-05-06 14:52 50.33666 -0.82404 30659 ft 388 kts
2026-05-06 14:52 50.36298 -0.82022 30141 ft 378 kts
2026-05-06 14:53 50.38871 -0.81649 29637 ft 367 kts
2026-05-06 14:53 50.41399 -0.81282 29216 ft 362 kts
2026-05-06 14:53 50.43888 -0.80923 28787 ft 358 kts
2026-05-06 14:53 50.46341 -0.80569 28369 ft 355 kts
2026-05-06 14:54 50.48787 -0.80215 27958 ft 351 kts
2026-05-06 14:54 50.51191 -0.79866 27544 ft 348 kts
2026-05-06 14:54 50.53590 -0.79518 27133 ft 344 kts
2026-05-06 14:54 50.55956 -0.79174 26728 ft 341 kts
2026-05-06 14:55 50.58289 -0.78835 26326 ft 339 kts
2026-05-06 14:55 50.60663 -0.78491 25924 ft 352 kts
2026-05-06 14:55 50.63142 -0.78133 25476 ft 360 kts
2026-05-06 14:55 50.65601 -0.77774 25039 ft 357 kts
2026-05-06 14:56 50.68069 -0.77411 24607 ft 353 kts
2026-05-06 14:56 50.70507 -0.77052 24180 ft 349 kts
2026-05-06 14:56 50.72906 -0.76699 23754 ft 346 kts
2026-05-06 14:56 50.75260 -0.76352 23341 ft 343 kts
2026-05-06 14:57 50.77638 -0.75998 22920 ft 340 kts
2026-05-06 14:57 50.79941 -0.75519 22484 ft 338 kts
2026-05-06 14:57 50.82212 -0.74686 22079 ft 336 kts 14°
2026-05-06 14:57 50.84421 -0.73494 21671 ft 333 kts 19°
2026-05-06 14:58 50.86553 -0.72154 21280 ft 331 kts 20°
2026-05-06 14:58 50.88688 -0.70748 20870 ft 332 kts 21°
2026-05-06 14:58 50.90806 -0.69344 20463 ft 335 kts 21°
2026-05-06 14:58 50.92940 -0.67935 20033 ft 332 kts 20°
2026-05-06 14:59 50.95063 -0.66542 19629 ft 329 kts 20°
2026-05-06 14:59 50.97164 -0.65170 19225 ft 326 kts 20°
2026-05-06 14:59 50.99248 -0.63814 18836 ft 323 kts 20°
2026-05-06 14:59 51.01319 -0.62468 18411 ft 321 kts 20°
2026-05-06 15:00 51.03372 -0.61134 18024 ft 318 kts 20°
2026-05-06 15:00 51.05397 -0.59818 17620 ft 316 kts 20°
2026-05-06 15:00 51.07421 -0.58503 17232 ft 314 kts 20°
2026-05-06 15:00 51.09446 -0.57187 16838 ft 312 kts 20°
2026-05-06 15:01 51.11395 -0.55919 16447 ft 310 kts 20°
2026-05-06 15:01 51.13428 -0.54595 16053 ft 307 kts 20°
2026-05-06 15:01 51.15390 -0.53316 15656 ft 305 kts 20°
2026-05-06 15:01 51.17328 -0.52051 15281 ft 303 kts 20°
2026-05-06 15:02 51.19263 -0.50787 14902 ft 300 kts 20°
2026-05-06 15:02 51.21182 -0.49533 14525 ft 298 kts 20°
2026-05-06 15:02 51.23083 -0.48289 14144 ft 296 kts 20°
2026-05-06 15:02 51.24982 -0.47045 13772 ft 294 kts 20°
2026-05-06 15:03 51.26858 -0.45815 13393 ft 293 kts 20°
2026-05-06 15:03 51.28742 -0.44579 13019 ft 291 kts 20°
2026-05-06 15:03 51.30603 -0.43356 12647 ft 289 kts 20°
2026-05-06 15:03 51.32452 -0.42143 12279 ft 287 kts 20°
2026-05-06 15:04 51.34275 -0.40947 11916 ft 285 kts 20°
2026-05-06 15:04 51.36110 -0.39741 11546 ft 283 kts 20°
2026-05-06 15:04 51.38381 -0.38245 11093 ft 281 kts 20°
2026-05-06 15:04 51.40167 -0.37067 10735 ft 279 kts 20°
2026-05-06 15:05 51.41969 -0.35878 10371 ft 277 kts 20°
2026-05-06 15:05 51.43701 -0.34585 10143 ft 273 kts 29°
2026-05-06 15:05 51.45290 -0.32873 10217 ft 281 kts 35°
2026-05-06 15:05 51.46851 -0.30932 10220 ft 281 kts 37°
2026-05-06 15:06 51.48368 -0.28998 10122 ft 282 kts 37°
2026-05-06 15:06 51.49922 -0.27042 9990 ft 280 kts 36°
2026-05-06 15:06 51.51452 -0.25148 9980 ft 279 kts 36°
2026-05-06 15:06 51.52990 -0.23261 9980 ft 280 kts 36°
2026-05-06 15:07 51.54591 -0.21512 9979 ft 279 kts 25°
2026-05-06 15:07 51.56389 -0.20428 9983 ft 278 kts 14°
2026-05-06 15:07 51.58254 -0.19635 9978 ft 277 kts 13°
2026-05-06 15:07 51.60112 -0.18809 9933 ft 276 kts 15°
2026-05-06 15:08 51.61943 -0.17892 9639 ft 273 kts 17°
2026-05-06 15:08 51.63720 -0.16935 9251 ft 274 kts 18°
2026-05-06 15:08 51.65523 -0.15937 8902 ft 273 kts 18°
2026-05-06 15:08 51.67308 -0.14942 8531 ft 271 kts 18°
2026-05-06 15:09 51.69089 -0.13953 8187 ft 270 kts 18°
2026-05-06 15:09 51.70844 -0.12984 7860 ft 268 kts 18°
2026-05-06 15:09 51.72597 -0.12014 7687 ft 265 kts 18°
2026-05-06 15:09 51.74318 -0.11060 7505 ft 257 kts 19°
2026-05-06 15:10 51.75955 -0.10081 7333 ft 250 kts 22°
2026-05-06 15:10 51.77528 -0.08988 7153 ft 243 kts 24°
2026-05-06 15:10 51.79055 -0.07880 6988 ft 237 kts 24°
2026-05-06 15:10 51.80541 -0.06814 6977 ft 235 kts 24°
2026-05-06 15:11 51.82044 -0.05754 6960 ft 236 kts 23°
2026-05-06 15:11 51.83551 -0.04701 6778 ft 232 kts 24°
2026-05-06 15:11 51.85033 -0.03663 6450 ft 234 kts 25°
2026-05-06 15:11 51.86344 -0.02197 6166 ft 230 kts 50°
2026-05-06 15:12 51.86999 0.00085 5982 ft 223 kts 82°
2026-05-06 15:12 51.86800 0.02505 5671 ft 224 kts 113°
2026-05-06 15:12 51.85796 0.04426 5324 ft 228 kts 146°
2026-05-06 15:12 51.84289 0.05189 4961 ft 231 kts 179°
2026-05-06 15:13 51.82753 0.04546 4606 ft 232 kts 213°
2026-05-06 15:13 51.81644 0.02762 4312 ft 227 kts 238°
2026-05-06 15:13 51.80804 0.00608 4014 ft 226 kts 241°
2026-05-06 15:13 51.79982 -0.01569 3706 ft 227 kts 241°
2026-05-06 15:14 51.79152 -0.03728 3478 ft 224 kts 238°
2026-05-06 15:14 51.78030 -0.05422 3354 ft 221 kts 207°
2026-05-06 15:14 51.76580 -0.05889 3160 ft 213 kts 172°
2026-05-06 15:14 51.75272 -0.04975 2963 ft 203 kts 133°
2026-05-06 15:15 51.74404 -0.03224 2964 ft 203 kts 121°
2026-05-06 15:15 51.73854 -0.01197 2963 ft 195 kts 92°
2026-05-06 15:15 51.74042 0.00915 2966 ft 189 kts 64°
2026-05-06 15:15 51.74706 0.02687 2964 ft 184 kts 47°
2026-05-06 15:16 51.75554 0.04152 2963 ft 173 kts 41°
2026-05-06 15:16 51.76424 0.05482 2964 ft 173 kts 40°
2026-05-06 15:16 51.77315 0.06815 2969 ft 174 kts 40°
2026-05-06 15:16 51.78206 0.08142 2926 ft 176 kts 40°
2026-05-06 15:17 51.79107 0.09481 2691 ft 177 kts 40°
2026-05-06 15:17 51.79998 0.10806 2446 ft 175 kts 40°
2026-05-06 15:17 51.80886 0.12129 2204 ft 173 kts 40°
2026-05-06 15:17 51.81762 0.13431 1973 ft 164 kts 40°
2026-05-06 15:18 51.82561 0.14627 1750 ft 151 kts 39°
2026-05-06 15:18 51.83311 0.15746 1539 ft 145 kts 38°
2026-05-06 15:18 51.84045 0.16829 1359 ft 141 kts 41°
2026-05-06 15:18 51.84774 0.17917 1167 ft 142 kts 41°
2026-05-06 15:19 51.85512 0.19006 966 ft 141 kts 40°
2026-05-06 15:19 51.86224 0.20106 794 ft 141 kts 39°
2026-05-06 15:19 51.86968 0.21165 568 ft 145 kts 41°
2026-05-06 15:19 51.87700 0.22281 370 ft 144 kts 42°
2026-05-06 15:20 51.88361 0.23273 342 ft 95 kts 43°
2026-05-06 15:20 51.88706 0.23789 340 ft 53 kts 42°
2026-05-06 15:20 51.88871 0.24162 339 ft 36 kts 70°
2026-05-06 15:20 51.88921 0.24430 339 ft 14 kts 80°
2026-05-06 15:21 51.88909 0.24554 339 ft 9 kts 91°
2026-05-06 15:21 51.88951 0.24636 340 ft 11 kts 43°
2026-05-06 15:21 51.89019 0.24735 341 ft 13 kts 43°
2026-05-06 15:21 51.89082 0.24831 342 ft 12 kts 43°
2026-05-06 15:22 51.89153 0.24938 343 ft 16 kts 43°
2026-05-06 15:22 51.89233 0.25087 345 ft 13 kts 60°
2026-05-06 15:22 51.89213 0.25215 345 ft 13 kts 131°
2026-05-06 15:22 51.89218 0.25335 345 ft 12 kts 41°
2026-05-06 15:23 51.89288 0.25440 347 ft 14 kts 42°
2026-05-06 15:23 51.89359 0.25552 348 ft 12 kts 56°
2026-05-06 15:23 51.89336 0.25667 348 ft 11 kts 133°
2026-05-06 15:23 51.89286 0.25754 347 ft 9 kts 133°
2026-05-06 15:24 51.89261 0.25806 347 ft 2 kts 104°
2026-05-06 15:24 51.89269 0.25834 347 ft 2 kts 47°
2026-05-06 15:24 51.89281 0.25853 348 ft 2 kts 43°
2026-05-06 15:24 51.89285 0.25859 348 ft 0 kts 43°
2026-05-06 15:25 51.89294 0.25872 348 ft 1 kts 43°
2026-05-06 15:25 51.89294 0.25873 348 ft 0 kts 43°